Regional Weather Roundup
Issued by NWS

Home | Current Version | Previous Version | Text Only | Print | Product List | Glossary Off
Versions: 1 2 3 4 5 6 7 8 9 10 11 12 13 14 15 16 17 18 19 20 21 22 23 24 25 26 27 28 29 30 31 32 33 34 35 36 37 38 39 40 41 42 43 44 45 46 47 48 49 50

000
ASUS43 KMKX 251600
RWRWI

WISCONSIN REGIONAL WEATHER ROUNDUP
NATIONAL WEATHER SERVICE MILWAUKEE/SULLIVAN WI
1000 AM CST TUE NOV 25 2014

NOTE: "FAIR" INDICATES FEW OR NO CLOUDS BELOW 12,000 FEET WITH NO
SIGNIFICANT WEATHER AND/OR OBSTRUCTIONS TO VISIBILITY.

WIZ001-002-006>008-014>016-023>028-251700-
NORTHWEST WISCONSIN

CITY           SKY/WX    TMP DP  RH WIND       PRES   REMARKS
SUPERIOR ARPT  SUNNY     15   8  74 W6        30.02R WCI   6
ASHLAND        SUNNY     18  12  77 W7        30.01R WCI   9
HAYWARD        MOSUNNY   13   9  84 W6        30.00R WCI   4
SIREN          SUNNY     14   8  79 W3        30.02S
CUMBERLAND     LGT SNOW  12   9  85 W5        30.01R WCI   4
RICE LAKE      LGT SNOW  15  10  80 W5        30.03R WCI   7
CHETEK         LGT SNOW  15   9  78 W3        30.02R
LADYSMITH      NOT AVBL
EAU CLAIRE     NOT AVBL
MENOMONIE      NOT AVBL
NEW RICHMOND   FLURRIES  14   9  80 W5        30.04R WCI   7
OSCEOLA        NOT AVBL
$$

WIZ003>005-009-010-017-018-251700-
NORTH CENTRAL WISCONSIN

CITY           SKY/WX    TMP DP  RH WIND       PRES   REMARKS
MANITOWISH WTR NOT AVBL
ARBOR VITAE    LGT SNOW  17  12  82 W7        29.91R WCI   7
WOODRUFF       LGT SNOW  17  12  82 W7        29.91R WCI   7
RHINELANDER    LGT SNOW  16  10  77 W10       29.92R WCI   4
EAGLE RIVER    LGT SNOW  18  11  74 W10       29.89R WCI   6
LAND O LAKES   LGT SNOW  19  15  83 NW7       29.90R WCI  10
PHILLIPS       NOT AVBL
TOMAHAWK       NOT AVBL
MEDFORD        LGT SNOW  15  10  81 W10       29.95R WCI   2
MERRILL        SUNNY     18  10  70 NW10      29.95R WCI   7
$$

WIZ029-030-035-036-043>047-251700-
CENTRAL WISCONSIN

CITY           SKY/WX    TMP DP  RH WIND       PRES   REMARKS
WAUSAU         SUNNY     19  11  70 NW10      29.96R WCI   7
MOSINEE        FLURRIES  18  16  93 W9        29.98R WCI   6
MARSHFIELD     FLURRIES  17  10  74 NW12      29.99R WCI   4
STEVENS POINT  LGT SNOW  18  13  81 W8        29.98R WCI   8
WAUPACA        NOT AVBL
WAUTOMA        NOT AVBL
WISC RAPIDS    CLOUDY    19  10  68 NW10      30.03R WCI   7
CAMP DOUGLAS   NOT AVBL
$$

WIZ011>013-019>022-031-037>040-048>050-251700-
NORTHEAST WISCONSIN

CITY           SKY/WX    TMP DP  RH WIND       PRES   REMARKS
ANTIGO         MOSUNNY   17  12  82 W13       29.92R WCI   3
SHAWANO        CLOUDY    25  19  76 W7        29.96R WCI  17
OCONTO         CLOUDY    25  22  89 W5        29.95R WCI  19
STURGEON BAY   CLOUDY    25  18  74 W14       29.94R WCI  13
GREEN BAY      MOSUNNY   25  18  74 W12       29.98R WCI  14
MANITOWOC      NOT AVBL
APPLETON       PTSUNNY   23  18  80 W13       29.98R WCI  11
CLINTONVILLE   FLURRIES  21  18  86 W8        29.98R WCI  12
OSHKOSH        CLOUDY    22  15  75 W10       30.00R WCI  11
$$

WIZ032>034-041-042-053>061-251700-
SOUTHWEST WISCONSIN

CITY           SKY/WX    TMP DP  RH WIND       PRES   REMARKS
LA CROSSE      CLOUDY    19  12  74 W8        30.07R WCI   9
SPARTA         NOT AVBL
VIROQUA        CLOUDY    17  14  90 W7        30.02R WCI   7
BOSCOBEL       CLOUDY    20  13  74 W6        30.09R WCI  12
PRAIRIE DU CHI SUNNY     18  10  70 W6        30.09R WCI   9
PLATTEVILLE    CLOUDY    18  14  85 W9        30.07R WCI   7
$$

WIZ056-057-062-063-064-067-068-251700-
SOUTH CENTRAL WISCONSIN

CITY           SKY/WX    TMP DP  RH WIND       PRES   REMARKS
REEDSBURG      CLOUDY    19  14  80 W9        30.04R WCI   8
BARABOO/DELLS  FLURRIES  19  14  81 W8        30.03R WCI   9
LONE ROCK      NOT AVBL
MINERAL POINT  FLURRIES  21  16  79 W8        30.03R WCI  12
MADISON        CLOUDY    20  14  77 NW7       30.05R WCI  11
MIDDLETON      CLOUDY    22  16  76 W10       30.04R WCI  11
WATERTOWN      SUNNY     22  16  79 W9        30.02R WCI  12
MONROE         MOSUNNY   21  16  79 W13       30.04R WCI   9
JANESVILLE     SUNNY     21  16  79 W7        30.06R WCI  13
$$

WIZ051-052-058>065-066-070>072-251700-
SOUTHEAST WISCONSIN

CITY           SKY/WX    TMP DP  RH WIND       PRES   REMARKS
MILWAUKEE      PTSUNNY   25  16  68 NW14      30.02R WCI  13
WAUKESHA       CLOUDY    19  16  86 W12G18    30.03R WCI   7
MILWAUKEE/TIMM CLOUDY    25  18  74 W13       30.02R WCI  13
RACINE         CLOUDY    24  18  77 W10G20    30.05R WCI  14
BURLINGTON     SUNNY     21  15  78 W10       30.04R WCI   9
KENOSHA        MOSUNNY   22  16  78 W14       30.05R WCI   9
FOND DU LAC    CLOUDY    22  14  71 NW17G23   30.01R WCI   8
SHEBOYGAN      PTSUNNY   24  18  77 W12       29.99R WCI  13
WEST BEND      CLOUDY    23  18  80 W13G18    30.00R WCI  11
JUNEAU         PTSUNNY   21  15  79 W9        30.02R WCI  10
$$

LSZ147-162-251700-
LAKE SUPERIOR

STATION/POSITION TIME  TEMP    WIND        PRES    WAVE
                       AIR SEA DIR/SP/G            HT/PER
                 (UTC) (F)     (DEG/KT/KT) (MB)    (FT/S)
DEVILS ISLAND    1500   19     320/ 11/ 15 1016.3R
PORT WING        1500   18     290/  8/ 11 1015.9R
SAXON HARBOR     1500   18     240/  4/  8 1015.2R
$$

LMZ867-665-643>646-251700-
LAKE MICHIGAN

STATION/POSITION TIME  TEMP    WIND        PRES    WAVE
                       AIR SEA DIR/SP/G            HT/PER
                 (UTC) (F)     (DEG/KT/KT) (MB)    (FT/S)
CHAMBERS ISLAND  1500   26     290/  8/ 15 1012.9R
N MID LAKE BUOY  1450   29 42  310/ 23/ 27 1011.1R   5/ 5
NORTHPORT PIER   1528   26     300/ 12/ 22 1012.9R
SISTER BAY       1513          330/ 21/ 25   N/A
ALGOMA LAKESHORE 1343             CALM       N/A
KEWAUNEE LAKESHO 1500   24     300/  8/ 11 1012.7R
SHEBOYGAN LAKESH 1500   24 37  280/ 13/ 17 1015.8R
PORT WASHINGTON  1500   25     280/  7/ 13 1016.3R
MILWAUKEE LAKESH 1500   25     280/ 11/ 14   N/A
S MID LAKE BUOY  1450   28 42  270/ 17/ 23 1016.0R   5/ 5
KENOSHA   LAKESH 1500   23     270/ 13/ 20 1016.9R
$$

TC  - TEMPERATURE IN CELSIUS
VSB - VISIBILITY IN STATUTE MILES
WCI - WIND CHILL INDEX
HX  - HEAT INDEX




USA.gov is the U.S. government's official web portal to all federal, state and local government web resources and services.